Time,TemperatureF,DewpointF,PressureIn,WindDirection,WindDirectionDegrees,WindSpeedMPH,WindSpeedGustMPH,Humidity,HourlyPrecipIn,Conditions,Clouds,dailyrainin,SoftwareType,DateUTC
2013-08-11 00:01:00,72.0,72.0,30.03,North,0,0.0,0.0,99,0.00,,,0.08,,2013-08-11 04:01:00,
2013-08-11 00:12:00,72.0,72.0,30.03,North,0,0.0,0.0,99,0.00,,,0.08,,2013-08-11 04:12:00,
2013-08-11 00:22:00,72.0,72.0,30.02,North,0,0.0,0.0,99,0.00,,,0.08,,2013-08-11 04:22:00,
2013-08-11 00:32:00,72.0,72.0,30.02,North,0,0.0,0.0,99,0.00,,,0.08,,2013-08-11 04:32:00,
2013-08-11 00:43:00,72.0,72.0,30.01,North,0,0.0,0.0,99,0.00,,,0.08,,2013-08-11 04:43:00,
2013-08-11 00:53:00,72.0,72.0,30.01,North,0,0.0,0.0,99,0.00,,,0.08,,2013-08-11 04:53:00,
2013-08-11 01:02:00,72.0,72.0,30.01,North,0,0.0,0.0,99,0.00,,,0.08,,2013-08-11 05:02:00,
2013-08-11 01:20:00,72.0,72.0,30.01,North,0,0.0,0.0,99,0.00,,,0.08,,2013-08-11 05:20:00,
2013-08-11 01:38:00,72.0,72.0,30.01,North,0,0.0,0.0,99,0.00,,,0.08,,2013-08-11 05:38:00,
2013-08-11 01:54:00,71.0,71.0,30.01,North,0,0.0,0.0,99,0.00,,,0.08,,2013-08-11 05:54:00,
2013-08-11 02:04:00,71.0,71.0,30.00,North,0,0.0,0.0,99,0.00,,,0.08,,2013-08-11 06:04:00,
2013-08-11 02:17:00,71.0,71.0,30.00,North,0,0.0,0.0,99,0.00,,,0.08,,2013-08-11 06:17:00,
2013-08-11 02:26:00,71.0,71.0,30.01,North,0,0.0,0.0,99,0.00,,,0.08,,2013-08-11 06:26:00,
2013-08-11 02:37:00,71.0,71.0,30.01,North,0,0.0,0.0,99,0.00,,,0.08,,2013-08-11 06:37:00,
2013-08-11 02:48:00,71.0,71.0,30.01,North,0,0.0,0.0,99,0.00,,,0.08,,2013-08-11 06:48:00,
2013-08-11 02:55:00,71.0,71.0,30.00,North,0,0.0,0.0,99,0.00,,,0.08,,2013-08-11 06:55:00,
2013-08-11 03:06:00,71.0,71.0,30.00,North,0,0.0,0.0,99,0.00,,,0.08,,2013-08-11 07:06:00,
2013-08-11 03:16:00,71.0,71.0,30.00,North,0,0.0,0.0,99,0.00,,,0.08,,2013-08-11 07:16:00,
2013-08-11 03:25:00,71.0,71.0,30.00,North,0,0.0,0.0,99,0.00,,,0.08,,2013-08-11 07:25:00,
2013-08-11 03:36:00,71.0,71.0,30.01,North,0,0.0,0.0,99,0.00,,,0.08,,2013-08-11 07:36:00,
2013-08-11 03:45:00,71.0,71.0,30.01,North,0,0.0,0.0,99,0.00,,,0.08,,2013-08-11 07:45:00,
2013-08-11 03:54:00,71.0,71.0,30.01,North,0,0.0,0.0,99,0.00,,,0.08,,2013-08-11 07:54:00,
2013-08-11 04:10:00,71.0,71.0,30.01,North,0,0.0,0.0,99,0.00,,,0.08,,2013-08-11 08:10:00,
2013-08-11 04:19:00,71.0,71.0,30.01,North,0,0.0,0.0,99,0.00,,,0.08,,2013-08-11 08:19:00,
2013-08-11 04:26:00,71.0,71.0,30.01,North,0,0.0,0.0,99,0.00,,,0.08,,2013-08-11 08:26:00,
2013-08-11 04:37:00,71.0,71.0,30.02,North,0,0.0,0.0,99,0.00,,,0.08,,2013-08-11 08:37:00,
2013-08-11 04:43:00,71.0,71.0,30.01,North,0,0.0,0.0,99,0.00,,,0.08,,2013-08-11 08:43:00,
2013-08-11 04:48:00,71.0,71.0,30.02,North,0,0.0,0.0,99,0.00,,,0.08,,2013-08-11 08:48:00,
2013-08-11 04:57:00,71.0,71.0,30.02,North,0,0.0,0.0,99,0.00,,,0.08,,2013-08-11 08:57:00,
2013-08-11 05:10:00,71.0,71.0,30.01,North,0,0.0,0.0,99,0.00,,,0.08,,2013-08-11 09:10:00,
2013-08-11 05:35:00,71.0,71.0,30.01,North,0,0.0,0.0,99,0.00,,,0.08,,2013-08-11 09:35:00,
2013-08-11 06:02:00,71.0,71.0,30.03,North,0,0.0,0.0,99,0.00,,,0.08,,2013-08-11 10:02:00,
2013-08-11 06:15:00,71.0,71.0,30.03,North,0,0.0,0.0,99,0.00,,,0.08,,2013-08-11 10:15:00,
2013-08-11 06:29:00,70.0,70.0,30.03,North,0,0.0,0.0,99,0.01,,,0.09,,2013-08-11 10:29:00,
2013-08-11 06:36:00,70.0,70.0,30.03,North,0,0.0,0.0,99,0.01,,,0.09,,2013-08-11 10:36:00,
2013-08-11 06:47:00,70.0,70.0,30.03,North,0,0.0,0.0,99,0.01,,,0.09,,2013-08-11 10:47:00,
2013-08-11 06:57:00,70.0,70.0,30.04,North,0,0.0,0.0,99,0.01,,,0.09,,2013-08-11 10:57:00,
2013-08-11 07:06:00,70.0,70.0,30.04,North,0,0.0,0.0,99,0.01,,,0.09,,2013-08-11 11:06:00,
2013-08-11 07:17:00,70.0,70.0,30.04,North,0,0.0,0.0,99,0.01,,,0.09,,2013-08-11 11:17:00,
2013-08-11 07:24:00,70.0,70.0,30.05,North,0,0.0,0.0,99,0.00,,,0.09,,2013-08-11 11:24:00,
2013-08-11 08:01:00,70.0,70.0,30.05,North,0,0.0,0.0,99,0.00,,,0.09,,2013-08-11 12:01:00,
2013-08-11 08:06:00,70.0,70.0,30.05,North,0,0.0,0.0,99,0.00,,,0.09,,2013-08-11 12:06:00,
2013-08-11 08:16:00,71.0,71.0,30.04,North,0,0.0,0.0,100,0.00,,,0.09,,2013-08-11 12:16:00,
2013-08-11 08:23:00,71.0,71.0,30.05,North,0,0.0,0.0,100,0.00,,,0.09,,2013-08-11 12:23:00,
2013-08-11 08:36:00,71.0,71.0,30.05,North,0,0.0,0.0,100,0.00,,,0.09,,2013-08-11 12:36:00,
2013-08-11 08:54:00,71.0,71.0,30.05,North,0,0.0,0.0,100,0.00,,,0.09,,2013-08-11 12:54:00,
2013-08-11 09:16:00,71.0,71.0,30.05,North,0,0.0,0.0,100,0.00,,,0.09,,2013-08-11 13:16:00,
2013-08-11 09:49:00,74.0,73.0,30.05,North,0,0.0,3.0,97,0.00,,,0.09,,2013-08-11 13:49:00,
2013-08-11 09:58:00,75.0,74.0,30.05,SSE,160,1.0,4.0,96,0.00,,,0.09,,2013-08-11 13:58:00,
2013-08-11 10:06:00,76.0,74.0,30.05,North,0,0.0,4.0,93,0.00,,,0.09,,2013-08-11 14:06:00,
2013-08-11 10:13:00,79.0,75.0,30.04,North,0,0.0,3.0,89,0.00,,,0.09,,2013-08-11 14:13:00,
2013-08-11 10:19:00,77.0,75.0,30.04,North,0,0.0,2.0,93,0.00,,,0.09,,2013-08-11 14:19:00,
2013-08-11 10:24:00,78.0,74.0,30.04,North,0,0.0,3.0,89,0.00,,,0.09,,2013-08-11 14:24:00,
2013-08-11 10:35:00,79.0,75.0,30.04,North,0,0.0,3.0,89,0.00,,,0.09,,2013-08-11 14:35:00,
2013-08-11 10:56:00,79.0,75.0,30.04,North,0,0.0,3.0,89,0.00,,,0.09,,2013-08-11 14:56:00,
2013-08-11 11:08:00,79.0,75.0,30.04,North,0,0.0,3.0,89,0.00,,,0.09,,2013-08-11 15:08:00,
2013-08-11 11:24:00,82.0,77.0,30.04,North,0,0.0,4.0,84,0.00,,,0.09,,2013-08-11 15:24:00,
2013-08-11 11:41:00,82.0,77.0,30.04,North,0,0.0,4.0,85,0.00,,,0.09,,2013-08-11 15:41:00,
2013-08-11 11:49:00,83.0,77.0,30.04,North,0,0.0,4.0,83,0.00,,,0.09,,2013-08-11 15:49:00,
2013-08-11 12:00:00,83.0,78.0,30.04,North,0,0.0,4.0,84,0.00,,,0.09,,2013-08-11 16:00:00,
2013-08-11 12:10:00,84.0,78.0,30.03,North,0,0.0,3.0,83,0.00,,,0.09,,2013-08-11 16:10:00,
2013-08-11 12:29:00,85.0,79.0,30.03,North,0,0.0,4.0,82,0.00,,,0.09,,2013-08-11 16:29:00,
2013-08-11 12:40:00,85.0,79.0,30.03,North,0,0.0,4.0,82,0.00,,,0.09,,2013-08-11 16:40:00,
2013-08-11 12:46:00,86.0,79.0,30.02,North,0,0.0,3.0,81,0.00,,,0.09,,2013-08-11 16:46:00,
2013-08-11 12:55:00,85.0,78.0,30.03,North,0,0.0,1.0,81,0.00,,,0.09,,2013-08-11 16:55:00,
2013-08-11 13:08:00,86.0,79.0,30.02,North,0,0.0,4.0,81,0.00,,,0.09,,2013-08-11 17:08:00,
2013-08-11 13:14:00,86.0,78.0,30.02,North,0,0.0,4.0,78,0.00,,,0.09,,2013-08-11 17:14:00,
2013-08-11 13:25:00,86.0,78.0,30.02,North,0,0.0,4.0,76,0.00,,,0.09,,2013-08-11 17:25:00,
2013-08-11 13:37:00,88.0,80.0,30.01,SSE,161,1.0,4.0,77,0.00,,,0.09,,2013-08-11 17:37:00,
2013-08-11 13:55:00,87.0,76.0,30.01,North,0,0.0,3.0,71,0.00,,,0.09,,2013-08-11 17:55:00,
2013-08-11 14:06:00,88.0,77.0,30.01,South,169,2.0,6.0,71,0.00,,,0.09,,2013-08-11 18:06:00,
2013-08-11 14:28:00,87.0,78.0,29.99,North,0,0.0,0.0,74,0.00,,,0.09,,2013-08-11 18:28:00,
2013-08-11 14:39:00,87.0,78.0,29.99,North,0,0.0,0.0,74,0.00,,,0.09,,2013-08-11 18:39:00,
2013-08-11 14:47:00,87.0,78.0,29.99,North,0,0.0,0.0,74,0.00,,,0.09,,2013-08-11 18:47:00,
2013-08-11 14:55:00,87.0,78.0,29.99,North,0,0.0,0.0,74,0.00,,,0.09,,2013-08-11 18:55:00,
2013-08-11 15:03:00,90.0,79.0,29.98,North,0,0.0,0.0,71,0.00,,,0.09,,2013-08-11 19:03:00,
2013-08-11 15:09:00,89.0,80.0,29.98,North,0,0.0,0.0,74,0.00,,,0.09,,2013-08-11 19:09:00,
2013-08-11 15:16:00,89.0,80.0,29.98,North,0,0.0,0.0,74,0.00,,,0.09,,2013-08-11 19:16:00,
2013-08-11 15:35:00,90.0,79.0,29.98,North,0,0.0,0.0,71,0.00,,,0.09,,2013-08-11 19:35:00,
2013-08-11 15:50:00,90.0,79.0,29.98,North,0,0.0,0.0,71,0.00,,,0.09,,2013-08-11 19:50:00,
2013-08-11 16:00:00,90.0,79.0,29.98,North,0,0.0,0.0,71,0.00,,,0.09,,2013-08-11 20:00:00,
2013-08-11 16:20:00,90.0,77.0,29.96,North,0,0.0,0.0,66,0.00,,,0.09,,2013-08-11 20:20:00,
2013-08-11 16:28:00,89.0,79.0,29.96,North,0,0.0,2.0,73,0.00,,,0.09,,2013-08-11 20:28:00,
2013-08-11 16:39:00,89.0,79.0,29.96,North,0,0.0,2.0,73,0.00,,,0.09,,2013-08-11 20:39:00,
2013-08-11 16:49:00,89.0,79.0,29.96,North,0,0.0,2.0,73,0.00,,,0.09,,2013-08-11 20:49:00,
2013-08-11 16:55:00,89.0,80.0,29.96,North,0,0.0,1.0,74,0.00,,,0.09,,2013-08-11 20:55:00,
2013-08-11 17:08:00,91.0,78.0,29.96,SSE,148,2.0,5.0,66,0.00,,,0.09,,2013-08-11 21:08:00,
2013-08-11 17:27:00,90.0,78.0,29.96,North,0,0.0,6.0,68,0.00,,,0.01,,2013-08-11 21:27:00,
2013-08-11 17:35:00,90.0,77.0,29.96,North,0,0.0,3.0,65,0.00,,,0.01,,2013-08-11 21:35:00,
2013-08-11 18:05:00,88.0,77.0,29.95,North,0,0.0,2.0,71,0.00,,,0.01,,2013-08-11 22:05:00,
2013-08-11 18:16:00,88.0,77.0,29.95,North,0,0.0,2.0,71,0.00,,,0.01,,2013-08-11 22:16:00,
2013-08-11 18:25:00,87.0,78.0,29.95,North,0,0.0,0.0,76,0.00,,,0.01,,2013-08-11 22:25:00,
2013-08-11 18:36:00,85.0,78.0,29.95,North,0,0.0,0.0,79,0.00,,,0.01,,2013-08-11 22:36:00,
2013-08-11 18:46:00,85.0,78.0,29.95,North,0,0.0,0.0,80,0.00,,,0.01,,2013-08-11 22:46:00,
2013-08-11 18:59:00,85.0,78.0,29.95,North,0,0.0,0.0,81,0.00,,,0.01,,2013-08-11 22:59:00,
2013-08-11 19:06:00,84.0,79.0,29.95,North,0,0.0,0.0,84,0.00,,,0.01,,2013-08-11 23:06:00,
2013-08-11 19:29:00,82.0,78.0,29.96,North,0,0.0,0.0,87,0.00,,,0.01,,2013-08-11 23:29:00,
2013-08-11 19:35:00,81.0,77.0,29.96,North,0,0.0,0.0,88,0.00,,,0.01,,2013-08-11 23:35:00,
2013-08-11 19:48:00,80.0,76.0,29.96,North,0,0.0,0.0,89,0.00,,,0.01,,2013-08-11 23:48:00,
2013-08-11 19:56:00,79.0,75.0,29.96,North,0,0.0,0.0,87,0.00,,,0.01,,2013-08-11 23:56:00,
2013-08-11 20:07:00,79.0,75.0,29.96,North,0,0.0,0.0,89,0.00,,,0.01,,2013-08-12 00:07:00,
2013-08-11 20:17:00,78.0,75.0,29.96,North,0,0.0,0.0,90,0.00,,,0.01,,2013-08-12 00:17:00,
2013-08-11 20:25:00,78.0,75.0,29.97,North,0,0.0,0.0,90,0.00,,,0.01,,2013-08-12 00:25:00,
2013-08-11 20:37:00,77.0,74.0,29.97,North,0,0.0,0.0,91,0.00,,,0.01,,2013-08-12 00:37:00,
2013-08-11 20:49:00,77.0,74.0,29.97,North,0,0.0,0.0,92,0.00,,,0.01,,2013-08-12 00:49:00,
2013-08-11 20:54:00,77.0,75.0,29.96,North,0,0.0,0.0,93,0.00,,,0.01,,2013-08-12 00:54:00,
2013-08-11 21:08:00,77.0,75.0,29.96,North,0,0.0,0.0,93,0.00,,,0.01,,2013-08-12 01:08:00,
2013-08-11 21:14:00,76.0,74.0,29.96,North,0,0.0,0.0,94,0.00,,,0.01,,2013-08-12 01:14:00,
2013-08-11 21:26:00,76.0,74.0,29.96,North,0,0.0,0.0,94,0.00,,,0.01,,2013-08-12 01:26:00,
2013-08-11 21:38:00,76.0,74.0,29.96,North,0,0.0,0.0,94,0.00,,,0.01,,2013-08-12 01:38:00,
2013-08-11 21:47:00,76.0,74.0,29.96,North,0,0.0,0.0,95,0.00,,,0.01,,2013-08-12 01:47:00,
2013-08-11 21:55:00,75.0,73.0,29.97,North,0,0.0,0.0,95,0.00,,,0.01,,2013-08-12 01:55:00,
2013-08-11 22:08:00,75.0,74.0,29.97,North,0,0.0,0.0,96,0.00,,,0.01,,2013-08-12 02:08:00,
2013-08-11 22:16:00,75.0,74.0,29.97,North,0,0.0,0.0,96,0.00,,,0.01,,2013-08-12 02:16:00,
2013-08-11 22:25:00,75.0,74.0,29.97,North,0,0.0,0.0,97,0.00,,,0.01,,2013-08-12 02:25:00,
2013-08-11 22:36:00,75.0,74.0,29.97,North,0,0.0,0.0,97,0.00,,,0.01,,2013-08-12 02:36:00,
2013-08-11 22:47:00,75.0,74.0,29.97,North,0,0.0,0.0,97,0.00,,,0.01,,2013-08-12 02:47:00,
2013-08-11 22:55:00,75.0,74.0,29.97,North,0,0.0,0.0,97,0.00,,,0.01,,2013-08-12 02:55:00,
2013-08-11 23:08:00,75.0,74.0,29.98,North,0,0.0,0.0,97,0.00,,,0.01,,2013-08-12 03:08:00,
2013-08-11 23:15:00,74.0,73.0,29.98,North,0,0.0,0.0,97,0.00,,,0.01,,2013-08-12 03:15:00,
2013-08-11 23:25:00,74.0,73.0,29.98,North,0,0.0,0.0,98,0.00,,,0.01,,2013-08-12 03:25:00,
2013-08-11 23:39:00,74.0,73.0,29.97,North,0,0.0,0.0,98,0.00,,,0.01,,2013-08-12 03:39:00,
2013-08-11 23:57:00,74.0,73.0,29.97,North,0,0.0,0.0,98,0.00,,,0.01,,2013-08-12 03:57:00,